This is the latest recevied weather packets stored in our database for station/object W5ITZ. If no packets are shown the sender has not sent any weather packets the latest 10 day(s).
| Time | Temp. | Humidity | Pressure | Rain* | Wind** | Luminosity | Snow |
|---|---|---|---|---|---|---|---|
| 1787676293 | 32.78° C | 56% | 1017.6 hPa | 0 mm | - | 859 W/m² | - |
| 1787675989 | 32.78° C | 56% | 1017.6 hPa | 0 mm | - | 842 W/m² | - |
| 1787675685 | 32.78° C | 54% | 1017.7 hPa | 0 mm | - | 829 W/m² | - |
| 1787675383 | 33.33° C | 56% | 1017.7 hPa | 0 mm | - | 815 W/m² | - |
| 1787675078 | 32.78° C | 55% | 1017.9 hPa | 0 mm | - | 796 W/m² | - |
| 1787674773 | 32.22° C | 59% | 1017.6 hPa | 0 mm | - | 794 W/m² | - |
| 1787674468 | 32.22° C | 59% | 1017.8 hPa | 0 mm | - | 778 W/m² | - |
| 1787674163 | 32.22° C | 61% | 1017.8 hPa | 0 mm | - | 776 W/m² | - |
| 1787673858 | 32.78° C | 60% | 1017.7 hPa | 0 mm | - | 755 W/m² | - |
| 1787673553 | 32.22° C | 62% | 1017.9 hPa | 0 mm | - | 733 W/m² | - |
| 1787673253 | 31.67° C | 64% | 1017.7 hPa | 0 mm | - | 715 W/m² | - |
| 1787672953 | 31.67° C | 66% | 1018 hPa | 0 mm | - | 636 W/m² | - |
| 1787672648 | 31.11° C | 66% | 1017.8 hPa | 0 mm | - | 704 W/m² | - |
| 1787672348 | 31.11° C | 68% | 1017.6 hPa | 0 mm | - | 672 W/m² | - |
| 1787672043 | 31.11° C | 67% | 1017.9 hPa | 0 mm | - | 652 W/m² | - |
| 1787671743 | 31.11° C | 67% | 1017.8 hPa | 0 mm | - | 636 W/m² | - |
| 1787671437 | 30.56° C | 69% | 1017.7 hPa | 0 mm | - | 627 W/m² | - |
| 1787671132 | 30.56° C | 71% | 1017.8 hPa | 0 mm | - | 620 W/m² | - |
| 1787670829 | 30° C | 73% | 1017.4 hPa | 0 mm | - | 378 W/m² | - |
| 1787670529 | 30° C | 75% | 1017.4 hPa | 0 mm | - | 557 W/m² | - |
| 1787670223 | 30° C | 76% | 1017.5 hPa | 0 mm | - | 543 W/m² | - |
| 1787669922 | 30° C | 76% | 1017.5 hPa | 0 mm | - | 524 W/m² | - |
| 1787669617 | 30° C | 77% | 1017.4 hPa | 0 mm | - | 509 W/m² | - |
| 1787669312 | 29.44° C | 78% | 1017.5 hPa | 0 mm | - | 453 W/m² | - |
| 1787669008 | 29.44° C | 79% | 1017.4 hPa | 0 mm | - | 474 W/m² | - |
* Rain latest hour (hover to see other rain measurements)
** Current wind speed in m/s (hover to see current wind gust speed)